STARLINK-5475, 55661

Orbit data source: Space-Track

STARLINK-5475, 55661 is a payload satellite owned by SpaceX/Seattle (US) in LEO that was launched on Fri, 17 Feb 2023 UTC via an FALCON 9 launch vehicle from the Air Force Western Test Range (AFWTR). Payload-class satellites include a variety of spacecraft equipped with specific instruments for various scientific and technological missions. These include communications satellites like Starlink; space stations such as the ISS; scientific satellites like the Hubble; Earth observation satellites from companies like Planet Labs, Umbra, and HawkEye 360; GPS; miniature CubeSats for education and research; and military/defense satellites.

Loading next visibility...
Identifier
55661, 2023-021AK
Orbit
LEO
Country
Flag of USUS
Related business
Manufacturer
SpaceX/Seattle
Mission
Operational Commercial Communications
Bus & Motor
STARLINK, Unknown motor
Mass
305 kg wet, ~290 kg dry
Launch date (UTC)
2023-02-17 (3 years ago)
Launch vehicle
FALCON 9
Launch site
Air Force Western Test Range (AFWTR)
Object type
Payload
Rocket body
Debris
Shape & HBR
Box + 1 Pan, 10.1 m
Radar Cross Section
13.562 m², Large (>1 m²)

Expand to show TLE details & history
Last TLE update: 2 days ago

TLE from 2 days ago
0 STARLINK-5475
1 55661U 23021AK  26171.43309794  .00000018  00000-0  93367-5 0  9999
2 55661  69.9995 265.4361 0003279 269.4941  90.5843 14.98331978184673
Epoch: 2026-06-20T10:23Z
TLE epoch observation values (Epoch: 2026-06-20T10:23:39.662Z)
Latitude
0.00007°
Longitude
-159.12693°
Altitude
574.498 km
Speed
7.574 km/s
True Right ascension
17h 41m 44s
True Declination
0° 00' 00"
Sunlit
Object was in full shadow at epoch
Visualization orbit readout
Latitude
Unknown
Longitude
Unknown
Altitude
Unknown
Speed
Unknown
Apparent Right ascension
Unknown
Apparent Declination
Unknown
Sunlit
N/A
Visualization observer readout
Local Sidereal Time
21:51:55
Azimuth
Unknown
Elevation
Unknown
Doppler factor
Unknown
Orbital elements
Apogee altitude
572.276 km
Perigee altitude
567.72 km
Semi-major axis
6,948.135 km
Eccentricity
0.00033
Inclination
69.9995°
RAAN
265.4361°
Arg. of periapsis
269.4941°
True anomaly
90.62187°
Mean anomaly
90.5843°
Eccentric anomaly
90.60309°
Mean motion
3.74749 °/min
Orbital period
96.06 mins
BSTAR
0.0000093367
Loading maneuver chart data...
Computing Atmospheric mass density...

Documentation

Showing up to 5 results
|